GFSCGP_850_spd_000.txt.gz
Wind_Speed
4 6 2 4 2 3 1 2 3 4 3 7 6 8 13 4 19 19 19 22 18 15 10 5 5 14 14 9 8 10 11 12 16 16 17 19 22 23 24 26 26 23 24 27
7 3 2 4 5 3 6 3 4 6 6 3 8 10 7 7 6 20 22 20 16 14 9 9 6 4 4 6 7 8 9 10 13 14 17 19 23 25 27 25 23 26 29 29
5 3 2 5 6 7 3 2 3 6 7 3 5 6 6 4 9 15 14 14 10 5 5 3 1 4 6 7 6 5 6 11 14 16 16 20 24 28 31 32 32 30 29 34
2 2 4 6 3 2 4 3 4 6 4 2 4 3 3 3 2 2 8 12 10 8 7 5 4 4 6 5 7 7 8 12 14 20 22 25 27 30 31 32 33 31 33 30
4 2 4 4 3 3 7 7 8 4 4 3 9 3 6 4 4 6 4 11 10 9 5 2 1 2 2 3 5 7 10 14 16 20 24 29 33 38 37 37 36 36 34 36
2 3 3 1 4 2 6 6 5 4 3 3 3 2 4 5 5 5 6 8 8 6 0 2 2 2 1 1 2 4 5 9 14 20 26 28 33 36 37 38 41 43 38 39
6 5 4 3 5 7 8 6 4 5 5 4 5 4 3 1 8 10 11 9 5 1 3 3 4 4 3 5 7 10 17 24 29 35 33 36 42 36 33 33 30 38 39 31
5 6 7 6 2 2 4 4 4 1 0 5 7 1 2 4 5 8 11 12 8 7 6 3 2 4 4 9 14 18 20 25 29 31 37 40 32 34 36 34 32 33 35 26
5 4 5 4 5 2 4 4 1 5 2 3 5 5 7 4 8 9 5 6 11 8 10 12 11 11 12 15 18 22 26 31 36 39 33 27 31 35 35 31 28 23 28 30
3 4 2 6 5 4 3 1 5 4 2 3 5 6 5 7 11 10 6 5 15 17 12 9 9 5 10 20 27 32 36 37 34 30 29 30 32 33 31 21 15 18 21 18
2 3 7 4 3 2 5 4 4 1 4 3 2 6 4 9 8 9 10 14 12 9 10 12 13 13 19 25 29 28 33 30 30 30 33 31 31 31 24 16 13 15 16 12
3 4 3 5 8 2 2 3 5 3 5 3 3 11 11 6 19 10 10 8 12 13 9 8 14 22 28 30 31 33 32 31 30 32 37 32 29 24 18 15 13 13 12 8
1 2 3 7 6 8 4 7 4 3 2 6 3 5 11 25 7 12 12 15 11 4 10 14 22 29 32 35 30 32 29 28 30 40 36 29 24 17 15 14 14 13 10 11
4 3 6 5 5 3 9 15 11 4 2 5 13 15 18 9 6 9 10 12 14 15 14 21 28 33 30 32 31 30 29 30 39 40 34 20 16 14 14 13 11 9 7 12
3 5 4 7 7 5 15 17 16 9 14 5 8 9 10 3 4 10 13 13 17 14 18 27 30 34 32 31 29 30 27 35 39 36 25 16 16 16 13 9 9 11 13 11
3 4 4 10 6 8 17 14 12 13 13 9 9 14 2 12 12 16 18 24 23 18 27 32 30 30 31 30 27 26 33 36 31 23 17 13 14 15 17 18 21 8 9 13
2 3 2 5 4 4 10 8 6 5 7 7 6 6 5 6 13 19 28 28 24 24 31 35 32 29 28 30 28 32 31 25 17 15 11 10 12 12 13 7 4 8 14 20
5 3 2 3 1 4 9 6 7 6 7 6 3 5 10 9 17 21 22 22 20 30 32 33 29 29 27 30 31 27 16 12 9 7 8 8 7 9 8 10 13 19 23 24
8 5 1 1 3 6 10 10 2 2 8 5 5 8 16 26 27 17 17 14 25 30 29 24 23 23 31 29 24 16 15 13 7 5 4 6 9 13 19 26 25 23 25 26
6 5 3 2 3 6 8 5 7 5 6 9 8 12 15 16 10 11 22 21 25 26 19 17 22 29 27 20 16 13 6 6 8 11 14 17 18 16 17 20 22 23 22 24
3 2 3 2 6 8 9 12 1 4 7 10 22 25 24 7 13 22 17 20 20 15 21 26 29 30 18 16 13 8 3 5 10 16 18 16 19 20 21 20 19 21 22 23
5 3 5 2 3 8 5 4 3 9 16 30 34 28 15 15 13 15 18 20 16 22 26 30 28 13 15 19 7 4 12 18 14 15 19 19 19 19 18 19 20 20 20 22
3 7 5 8 7 5 7 22 25 24 33 29 18 13 13 16 16 21 13 18 21 25 31 24 14 11 13 12 13 13 15 12 15 19 19 20 19 18 19 19 18 19 21 24
4 10 6 7 8 17 26 41 39 31 22 14 14 13 9 11 14 20 19 18 26 29 23 15 11 12 9 12 15 15 16 15 17 18 19 20 20 19 17 16 19 20 21 21
9 8 5 13 22 32 29 28 23 20 9 12 8 13 13 17 25 23 20 25 27 23 19 18 20 12 11 14 17 16 16 16 17 19 21 20 18 16 16 20 17 17 16 18
12 14 7 14 27 22 27 18 15 12 9 5 12 22 27 23 23 19 23 27 25 19 22 16 11 13 15 18 17 17 16 16 18 20 21 18 16 16 18 22 18 14 18 19

GFSCGP_850_spd_003.txt.gz
Wind_Speed
5 6 2 3 1 3 1 2 2 4 3 7 4 8 12 14 3 5 6 13 15 14 7 1 5 5 10 12 7 4 4 6 4 8 10 13 16 19 22 24 24 24 24 25
6 2 1 4 5 3 2 2 4 5 5 3 7 9 8 10 5 6 20 20 18 15 11 10 9 7 3 2 4 4 6 8 9 12 14 16 19 21 24 26 28 30 30 29
5 1 5 4 5 6 4 2 3 5 7 1 6 6 5 5 8 8 10 13 13 13 10 6 3 1 3 4 5 8 10 11 12 14 17 21 24 26 28 30 34 35 37 37
2 3 3 6 3 2 4 2 2 6 4 2 5 3 5 3 2 3 5 9 11 9 6 4 4 6 5 5 7 10 12 14 14 17 19 22 26 30 30 31 35 35 36 39
1 3 6 6 4 2 6 7 4 2 3 2 8 4 6 5 2 1 4 8 6 5 6 3 4 5 6 7 9 11 13 13 14 14 19 26 31 33 36 39 36 34 32 34
4 3 3 2 3 4 8 4 6 4 2 2 1 2 6 4 4 1 4 6 7 5 2 1 3 3 5 7 8 7 5 8 15 22 28 32 35 39 41 37 32 31 32 31
7 4 5 4 5 6 8 6 3 5 5 4 1 2 6 4 4 1 4 5 4 2 4 5 8 6 6 3 5 11 16 20 25 29 34 35 39 37 32 34 37 37 33 32
4 5 5 6 1 3 3 3 4 3 1 5 6 2 4 1 3 5 8 0 1 4 4 5 3 4 2 7 13 20 26 31 35 37 36 32 30 31 32 35 35 35 30 27
4 4 4 1 3 1 4 4 2 6 2 3 4 5 5 4 6 4 3 4 2 5 10 5 2 4 6 13 21 25 29 31 32 29 28 30 34 36 33 32 32 31 28 24
3 4 2 6 3 6 6 2 4 4 2 3 5 5 5 4 5 5 3 12 8 7 6 5 5 6 13 21 25 28 27 28 27 28 31 35 41 37 31 30 27 26 21 19
2 2 6 3 4 1 5 4 5 3 3 3 2 6 5 5 8 5 10 7 7 6 5 9 10 16 22 26 26 23 25 28 27 29 35 41 43 35 33 30 25 21 16 12
2 3 3 3 7 4 4 6 4 3 5 3 3 6 3 5 5 10 5 11 13 13 14 18 19 21 24 28 26 28 25 31 32 34 40 46 51 34 26 22 17 17 13 15
2 2 3 7 6 3 3 3 3 3 3 6 3 5 3 20 5 6 11 14 18 20 22 22 21 24 26 26 28 30 30 32 34 40 46 48 39 23 20 20 16 11 9 6
2 2 5 5 5 4 7 5 3 5 3 4 10 16 15 6 4 14 20 22 23 26 25 22 23 26 25 26 30 33 33 32 37 42 43 37 26 15 16 13 10 11 6 7
3 2 3 5 7 5 13 12 16 7 10 6 8 8 10 6 5 13 19 22 24 28 23 18 27 31 28 26 30 30 29 34 38 37 28 25 14 9 13 13 12 10 14 18
2 3 3 5 6 8 14 14 10 13 10 8 9 10 7 5 10 14 21 26 25 25 19 25 30 32 28 30 33 29 33 33 28 20 18 16 12 11 12 16 15 12 10 14
2 4 2 5 4 8 7 7 4 4 5 5 5 7 2 6 15 20 24 28 24 30 24 29 31 33 30 31 26 33 31 23 16 15 13 12 12 13 13 13 14 15 17 18
6 4 2 3 1 3 10 3 7 10 10 7 6 6 9 16 27 22 26 19 20 22 23 28 33 31 33 29 35 29 22 17 15 13 9 10 12 14 16 19 21 21 18 21
6 5 3 3 3 6 9 9 2 5 7 4 6 5 18 30 29 22 14 13 16 15 18 25 29 27 29 33 27 21 20 10 3 5 10 18 19 19 19 20 21 24 24 24
6 5 3 2 4 6 8 4 4 1 7 5 4 11 24 19 10 10 4 9 18 20 22 23 23 29 33 19 16 21 20 10 10 22 17 19 19 21 23 23 23 22 23 25
2 1 4 4 6 9 10 9 2 3 4 10 17 24 26 9 16 11 15 15 17 19 22 20 29 31 19 15 20 18 11 10 18 20 18 20 22 22 22 22 22 25 24 23
5 3 5 2 4 8 3 3 5 12 22 27 25 20 17 12 10 12 18 21 23 21 24 30 27 18 15 17 15 15 13 18 19 19 21 22 21 21 22 23 23 22 24 26
3 8 4 8 6 6 7 14 30 20 26 19 13 13 10 11 13 20 25 28 20 19 28 28 24 18 16 16 15 15 17 17 18 20 20 20 22 22 22 21 22 24 24 26
4 13 3 5 10 22 22 36 38 30 13 8 4 3 8 18 21 24 29 31 20 25 29 28 25 24 20 16 13 14 15 15 18 19 21 23 23 22 20 20 23 22 24 26
10 3 5 14 19 28 31 21 19 12 5 5 6 13 18 21 27 29 30 23 25 27 28 25 24 18 15 13 15 16 15 17 17 19 21 23 23 20 20 21 23 23 22 24
12 10 5 8 25 22 22 12 6 4 8 8 12 18 22 25 26 26 26 25 29 25 24 21 19 16 16 17 19 17 16 17 18 19 22 24 23 22 23 23 25 21 22 24

GFSCGP_850_spd_006.txt.gz
Wind_Speed
7 8 3 3 1 0 0 1 2 3 1 5 4 6 9 13 9 7 3 8 10 11 9 6 7 9 3 5 9 4 3 3 4 7 10 12 14 15 18 21 23 24 27 31
6 4 1 5 5 4 3 2 4 5 3 0 6 7 6 10 8 10 14 16 16 15 12 12 11 9 8 4 2 4 5 8 8 10 14 17 20 22 23 25 27 30 31 32
5 1 5 4 6 6 4 2 2 5 6 1 5 4 6 4 11 13 11 11 12 11 10 7 6 4 1 1 4 6 8 11 13 16 18 20 21 22 27 27 26 27 32 33
4 4 5 6 4 2 4 2 2 4 2 2 4 2 5 6 3 7 5 7 8 7 5 3 0 4 6 8 9 10 12 14 15 14 14 18 24 29 31 34 36 36 31 29
2 3 6 7 2 1 6 4 2 1 2 3 8 4 6 5 3 1 4 7 6 6 4 5 8 10 11 11 9 8 7 7 9 13 20 24 29 32 34 35 33 31 32 33
2 2 3 2 3 2 6 3 5 4 2 3 3 3 5 3 3 2 2 4 5 4 4 5 5 4 3 0 2 4 7 12 18 23 28 31 30 31 33 35 36 38 39 39
6 4 5 4 5 6 9 6 3 5 5 4 3 1 6 5 3 3 5 3 2 5 6 5 3 2 2 4 8 13 20 24 27 29 30 30 30 30 33 37 39 39 38 38
4 5 5 6 1 2 3 4 4 2 1 4 5 3 2 4 8 7 5 4 4 6 7 6 5 5 6 10 17 23 26 29 30 28 27 26 27 32 37 39 40 37 34 35
3 3 5 2 2 1 2 4 2 5 2 3 3 4 5 4 9 15 13 10 11 10 9 8 8 8 11 20 25 26 27 26 25 24 27 31 36 40 43 43 40 31 29 30
1 2 1 4 2 7 6 4 4 4 2 3 5 6 3 7 10 8 6 9 11 11 11 13 14 16 16 19 22 24 23 23 24 29 31 35 41 45 46 44 29 23 27 21
2 2 5 2 4 1 4 3 4 3 3 3 2 6 4 4 2 5 5 10 13 14 14 17 20 21 21 23 25 24 25 27 30 32 35 39 44 47 45 31 19 16 14 8
2 4 3 4 1 1 2 3 3 4 4 2 3 6 2 5 5 6 2 9 14 18 22 24 23 25 23 28 27 25 28 31 32 31 36 44 43 40 29 21 9 7 5 5
1 2 3 8 5 4 3 2 4 5 3 6 2 5 6 6 5 2 7 12 18 25 27 26 27 20 25 28 27 25 28 31 29 34 39 39 37 31 21 9 8 8 8 8
2 2 5 5 6 4 5 4 4 5 3 3 10 16 18 14 7 13 15 19 25 30 25 26 22 21 26 28 25 28 31 28 33 36 32 31 27 25 13 7 8 10 7 14
4 2 4 5 8 7 11 11 7 8 8 6 15 9 11 9 7 10 17 25 26 29 21 21 19 23 24 25 29 34 27 32 35 30 26 24 20 20 15 13 12 14 19 24
3 3 0 4 3 4 8 12 10 9 7 11 14 15 12 9 5 15 27 28 25 27 21 19 19 21 22 26 30 30 34 38 29 23 22 15 17 18 15 12 13 16 21 24
0 3 2 5 3 8 8 6 5 3 5 6 6 11 2 3 11 22 25 25 26 15 16 23 23 26 28 30 29 34 33 27 22 23 11 7 8 14 19 21 22 21 23 21
5 4 2 3 4 2 8 2 6 7 8 10 7 6 7 9 21 24 22 23 15 14 18 20 23 29 29 29 35 31 24 25 26 17 17 18 17 15 18 20 22 23 24 24
6 5 2 3 3 5 9 8 1 4 7 3 2 4 9 23 27 18 16 8 16 19 24 26 27 25 30 35 29 22 25 26 16 14 20 20 19 20 23 24 23 23 23 24
5 5 3 1 4 5 7 3 3 2 6 1 8 17 27 21 9 8 7 11 14 20 22 29 22 29 33 27 17 21 20 16 15 19 21 20 21 23 23 23 23 24 25 24
1 1 6 7 5 8 8 8 1 3 3 20 20 24 21 6 3 6 16 18 21 23 26 20 27 30 28 20 20 20 15 16 18 21 19 22 22 22 22 23 23 22 23 26
4 3 4 2 3 8 3 2 1 10 21 23 28 14 3 1 7 14 18 23 25 28 24 22 28 30 25 22 22 19 17 14 20 18 20 21 21 22 23 23 22 23 25 27
4 7 3 7 6 7 4 17 33 25 22 18 7 1 8 10 12 19 25 27 29 28 20 26 27 29 25 21 17 17 16 18 15 19 20 21 22 24 24 23 24 25 26 27
4 6 4 3 7 15 24 34 23 13 10 7 5 10 8 14 19 27 28 29 29 24 25 31 28 25 22 16 14 18 22 18 17 18 20 21 23 25 25 24 24 25 26 27
8 3 4 6 19 21 20 12 15 10 12 17 7 10 16 22 24 26 27 30 29 29 30 28 26 22 21 18 19 20 21 16 17 19 20 21 23 25 26 24 23 24 24 24
10 5 4 13 19 13 18 8 11 9 5 5 12 19 23 24 22 24 30 31 30 30 31 27 23 21 23 23 20 20 20 19 19 20 21 22 23 25 25 23 24 22 21 24

GFSCGP_850_spd_009.txt.gz
Wind_Speed
9 8 4 2 0 3 3 2 2 3 2 5 3 6 9 12 12 9 8 9 11 8 5 7 10 8 5 5 10 9 7 7 6 8 9 10 12 14 17 20 21 24 25 26
6 4 0 4 4 2 2 3 2 3 1 1 5 4 4 11 8 8 10 14 15 17 15 12 11 10 8 7 8 9 10 10 11 12 14 16 17 18 20 22 25 27 28 30
5 0 3 2 4 4 1 2 2 3 6 2 4 2 6 4 7 9 11 13 15 13 11 9 8 7 6 5 7 8 9 10 12 13 13 13 15 18 23 28 32 33 30 28
5 4 3 3 3 1 2 2 4 3 1 1 4 3 4 5 3 3 5 8 7 5 5 3 2 2 4 5 5 7 6 5 5 9 14 18 23 26 27 28 28 29 28 31
0 2 4 5 2 1 2 1 1 1 3 2 5 0 2 3 2 2 3 1 3 3 2 2 3 3 1 2 2 3 4 7 13 19 23 26 27 27 28 30 35 36 37 36
2 2 3 2 2 1 4 2 3 2 2 2 1 2 2 3 5 4 2 5 5 2 3 3 2 5 6 4 3 4 10 17 23 27 29 28 26 28 32 35 39 41 41 41
5 3 5 5 4 3 8 3 1 2 3 1 1 1 2 7 7 5 7 7 8 8 6 3 1 2 3 6 11 17 22 26 29 31 30 27 27 29 33 37 41 45 45 41
3 1 4 6 2 2 4 3 2 1 2 4 2 0 3 5 8 8 10 9 11 12 11 8 5 6 11 15 20 24 27 28 28 26 24 25 27 31 38 43 44 44 41 37
2 2 3 4 3 2 1 5 1 5 1 2 3 1 5 5 11 12 10 10 12 12 12 12 14 17 20 20 23 25 25 24 22 22 24 26 30 35 41 43 42 38 30 23
1 2 2 3 1 8 4 4 1 3 2 3 4 4 3 2 4 2 5 7 9 10 14 18 20 20 21 21 20 22 21 19 21 25 26 28 33 39 42 41 36 28 21 10
1 1 2 1 4 1 2 2 5 3 1 2 3 5 5 5 3 1 4 0 6 10 17 19 19 19 20 15 20 23 22 22 25 27 27 33 39 40 36 33 25 17 6 4
1 2 1 2 1 1 1 3 3 2 2 1 0 7 3 6 3 1 5 3 8 16 20 21 19 19 14 18 25 23 19 22 26 27 32 36 35 33 29 23 16 4 5 4
2 2 2 2 2 2 1 2 4 4 2 7 3 6 3 8 7 11 7 10 16 27 24 25 20 16 19 24 20 21 26 27 28 33 36 36 30 27 22 16 10 8 10 10
2 2 4 4 3 2 4 4 5 4 4 4 12 18 21 18 15 11 10 12 22 25 20 19 16 16 21 18 21 22 25 28 33 35 31 25 23 22 20 16 15 14 14 18
3 3 3 4 8 5 10 12 11 12 12 7 14 15 19 15 12 9 12 21 21 21 19 16 17 19 17 20 25 26 26 31 31 28 25 25 19 15 18 17 17 18 19 20
2 2 1 3 5 4 8 14 12 13 13 13 18 20 20 15 4 6 17 20 18 13 10 11 13 17 22 24 27 29 34 30 23 25 24 18 17 16 17 17 19 21 22 22
0 3 1 3 5 8 7 4 4 3 5 4 6 8 6 4 5 19 22 15 8 5 10 17 15 17 24 26 29 35 33 22 23 18 12 14 16 17 19 21 23 25 24 23
4 3 1 2 4 1 3 2 5 7 13 8 8 6 6 10 21 17 9 7 7 13 18 17 21 25 23 27 31 30 23 24 21 12 13 17 19 21 23 24 24 23 22 23
4 4 2 2 3 6 11 6 2 4 7 3 4 9 17 24 20 8 4 6 15 18 17 22 24 23 24 28 30 25 24 24 18 14 17 20 20 23 24 24 24 24 25 24
4 3 1 2 3 5 4 1 4 4 6 4 11 21 29 22 12 6 9 17 20 23 23 25 23 19 25 27 25 23 22 20 17 16 21 21 22 23 23 23 24 24 23 24
1 1 4 6 5 8 6 4 1 2 3 10 20 24 18 5 5 17 16 21 25 26 28 27 21 22 26 26 26 23 21 23 19 17 21 20 21 22 22 23 24 24 24 24
3 3 4 2 4 7 2 3 1 7 23 17 20 8 8 17 10 12 17 23 24 25 26 22 22 27 28 25 24 19 15 15 17 20 18 19 21 21 22 25 24 24 24 25
4 5 2 7 6 6 8 17 15 13 7 10 8 5 13 7 14 20 23 25 26 29 29 27 28 31 29 23 20 19 16 19 22 19 17 18 20 21 23 24 25 24 22 23
3 6 4 1 8 17 20 21 12 10 11 10 7 7 11 14 20 22 26 26 29 32 32 30 30 30 28 22 18 19 20 20 21 19 18 19 21 21 23 24 23 21 19 19
7 5 4 6 20 18 13 12 20 8 5 6 7 10 14 19 22 23 26 29 32 33 33 34 33 28 25 24 22 24 19 20 20 18 19 20 21 22 23 22 20 20 20 20
9 7 4 6 14 9 6 11 6 2 5 6 10 15 16 19 24 25 30 33 33 32 34 35 33 27 25 24 20 15 20 20 18 18 18 19 20 21 21 21 20 17 16 19

GFSCGP_850_spd_012.txt.gz
Wind_Speed
5 3 6 7 6 4 1 1 3 3 4 9 1 2 8 9 7 6 5 6 9 11 7 5 4 3 3 3 5 5 9 13 12 9 8 6 7 10 10 10 17 19 21 27
4 7 5 4 4 1 2 3 2 1 1 5 2 3 7 10 11 9 10 12 12 13 13 11 10 9 8 6 7 7 8 10 10 10 12 13 14 11 15 14 19 24 30 29
3 6 2 1 5 4 2 2 4 5 6 3 3 6 6 6 9 10 12 14 14 12 11 10 8 6 5 5 5 5 7 8 8 7 6 8 9 12 11 19 20 26 29 29
7 3 2 2 4 7 2 2 8 7 6 3 3 4 4 4 7 8 10 10 9 9 7 6 5 2 1 1 1 1 2 5 8 11 14 19 15 15 18 17 18 25 26 29
4 4 4 4 4 5 5 8 5 3 6 4 3 6 8 4 6 5 6 7 8 8 7 7 7 7 6 5 6 7 8 10 15 18 20 16 14 14 15 18 21 23 24 28
7 3 4 5 2 2 5 3 2 1 2 4 2 5 6 2 4 5 7 7 7 6 5 6 6 6 7 6 6 9 11 12 19 22 24 23 20 19 19 22 25 25 29 30
4 5 2 7 4 4 8 3 2 2 3 1 1 6 7 5 7 7 7 8 9 9 7 5 4 3 4 6 10 14 16 13 14 15 16 18 18 20 21 24 26 32 32 30
2 4 8 9 5 5 6 6 3 3 2 3 4 3 7 6 6 7 8 8 7 7 7 5 4 5 7 10 11 11 12 14 14 15 19 21 24 23 26 28 33 34 30 29
2 3 3 6 6 4 3 4 1 2 1 3 1 4 8 6 6 7 7 5 5 4 4 6 8 9 10 11 11 14 17 19 19 20 22 24 25 28 34 39 38 33 29 23
2 2 1 1 3 8 4 3 2 2 2 4 2 7 6 10 4 3 3 1 0 3 6 9 12 12 13 12 12 15 16 17 14 14 18 21 25 29 32 30 25 22 17 12
3 3 2 3 2 2 3 2 2 1 2 3 4 6 4 3 2 2 6 6 5 7 11 14 14 14 12 10 13 17 15 13 13 14 17 19 23 23 21 20 17 15 12 9
4 1 1 1 2 3 2 1 0 2 2 2 4 7 3 2 3 4 13 6 7 9 14 13 13 13 11 13 16 15 15 15 16 18 19 19 19 17 19 17 14 13 11 10
1 0 2 3 4 3 5 2 1 1 1 9 4 4 3 2 9 14 11 10 8 13 16 15 15 13 13 15 15 15 14 16 19 21 20 17 17 18 16 16 16 14 14 14
1 2 4 4 6 4 6 7 7 9 5 8 13 18 17 14 14 15 12 7 13 17 16 14 13 14 15 14 13 15 15 17 21 20 19 20 18 14 15 15 15 15 16 16
2 3 3 7 10 13 12 13 12 15 16 11 16 16 16 15 14 14 5 14 20 17 13 14 13 17 14 14 16 16 20 21 18 18 19 17 11 11 14 16 16 16 16 17
2 1 3 3 7 11 13 16 15 13 14 14 16 16 8 11 9 6 16 20 17 10 10 14 13 13 14 17 17 18 22 22 16 18 16 10 11 14 15 15 17 18 18 16
1 2 1 3 8 13 6 3 2 4 4 8 11 10 9 7 10 16 18 14 5 6 15 14 13 16 18 18 17 21 23 18 17 17 12 12 14 15 15 17 18 18 17 16
4 3 1 2 4 3 3 6 9 13 14 9 10 4 6 10 21 21 5 4 5 13 14 16 18 20 21 18 20 22 23 20 18 17 15 13 14 14 16 17 17 17 17 18
2 3 3 2 4 14 12 4 3 3 13 4 4 10 18 26 23 11 3 18 18 14 18 19 21 23 23 20 22 24 23 21 20 19 16 14 13 14 16 16 17 17 18 18
4 4 2 3 3 4 4 4 4 3 9 2 11 21 25 24 8 3 15 12 13 17 19 22 23 24 22 23 25 25 24 23 19 16 13 13 13 14 15 16 17 17 18 18
3 2 4 6 6 7 5 3 2 4 4 15 15 14 9 1 6 14 14 13 16 18 20 21 23 25 24 26 26 25 24 21 18 15 14 14 12 13 14 16 17 19 20 19
3 4 4 2 4 6 3 3 4 8 14 6 5 3 5 11 8 9 13 17 19 21 22 24 26 26 26 26 25 26 24 21 19 18 17 14 12 12 15 16 19 20 20 19
5 5 3 7 6 6 15 19 14 8 6 2 4 7 8 7 11 14 17 19 22 22 24 26 26 27 27 26 24 24 25 21 18 18 14 14 13 13 14 18 20 19 17 18
4 7 4 5 12 16 13 18 7 6 4 0 4 2 5 11 15 17 20 24 25 25 26 24 25 27 28 26 22 20 20 24 16 16 15 13 13 15 16 17 16 16 15 17
7 5 10 13 18 18 9 5 6 7 3 3 4 5 9 13 17 21 24 26 25 25 24 23 24 27 28 24 21 21 13 14 16 15 13 12 12 13 14 14 14 13 12 15
17 14 6 5 11 7 8 7 8 7 3 2 6 9 11 16 21 23 25 25 24 24 23 24 26 27 27 24 21 12 17 19 17 14 9 9 11 10 11 11 12 16 19 18